Simultaneous Nadir Overpasses (SNOs) Predictions

Prediction of SNOs between AQUA and GOES-15 Satellite Orbit:

Table of predicted SNOs for the next 14.0 days since TLE Epoch: 12/31/2021
Index Date Time (AQUA) AQUA Lat,Lon GOES-15 Lat,Lon Distance(km) Time Diff (sec)
1 01/02/2022 09:55:42 -0.70,-124.98 -0.04,-128.18 363.66 80
2 01/02/2022 22:17:07 -0.37,-130.18 0.05,-128.19 225.74 80
3 01/04/2022 22:04:56 0.25,-127.22 0.04,-128.23 114.78 80
4 01/05/2022 10:26:12 0.82,-132.38 -0.05,-128.24 470.60 80
5 01/06/2022 21:52:45 0.88,-124.26 0.04,-128.27 455.34 80
6 01/07/2022 10:14:01 0.19,-129.42 -0.05,-128.28 130.03 80
7 01/09/2022 10:01:50 -0.45,-126.46 -0.05,-128.31 210.59 80
8 01/09/2022 22:23:14 -0.67,-131.65 0.06,-128.32 378.79 80
9 01/11/2022 22:11:03 -0.01,-128.69 0.05,-128.35 38.43 80
10 01/13/2022 21:58:51 0.59,-125.72 0.04,-128.38 301.45 80
11 01/14/2022 10:20:07 0.48,-130.88 -0.05,-128.38 284.17 80
